TimeEDT,TemperatureF,Dew PointF,Humidity,Sea Level PressureIn,VisibilityMPH,Wind Direction,Wind SpeedMPH,Gust SpeedMPH,PrecipitationIn,Events,Conditions,WindDirDegrees,DateUTC
12:51 AM,61.0,55.9,83,30.18,10.0,South,4.6,-,N/A,,Clear,190,2013-07-30 04:51:00
1:51 AM,60.1,55.0,83,30.18,10.0,South,4.6,-,N/A,,Clear,180,2013-07-30 05:51:00
2:51 AM,60.1,55.0,83,30.19,10.0,South,4.6,-,N/A,,Scattered Clouds,190,2013-07-30 06:51:00
3:51 AM,60.1,55.0,83,30.19,10.0,South,5.8,-,N/A,,Overcast,190,2013-07-30 07:51:00
4:51 AM,60.1,55.0,83,30.19,10.0,South,5.8,-,N/A,,Mostly Cloudy,180,2013-07-30 08:51:00
5:51 AM,59.0,54.0,83,30.20,10.0,South,6.9,-,N/A,,Clear,190,2013-07-30 09:51:00
6:51 AM,59.0,54.0,83,30.21,10.0,South,6.9,-,N/A,,Partly Cloudy,190,2013-07-30 10:51:00
7:51 AM,62.1,55.9,80,30.22,10.0,South,6.9,-,N/A,,Clear,190,2013-07-30 11:51:00
8:51 AM,66.9,57.9,73,30.22,10.0,SW,8.1,-,N/A,,Clear,220,2013-07-30 12:51:00
9:51 AM,69.1,55.9,63,30.22,10.0,West,8.1,-,N/A,,Mostly Cloudy,260,2013-07-30 13:51:00
10:51 AM,68.0,59.0,73,30.24,10.0,NW,8.1,-,N/A,,Overcast,320,2013-07-30 14:51:00
11:51 AM,70.0,57.9,65,30.24,10.0,NW,8.1,-,N/A,,Mostly Cloudy,320,2013-07-30 15:51:00
12:51 PM,72.0,55.9,57,30.22,10.0,West,6.9,-,N/A,,Clear,280,2013-07-30 16:51:00
1:51 PM,72.0,54.0,53,30.22,10.0,NW,8.1,-,N/A,,Clear,310,2013-07-30 17:51:00
2:51 PM,72.0,54.0,53,30.21,10.0,NW,6.9,-,N/A,,Clear,310,2013-07-30 18:51:00
3:51 PM,72.0,55.0,55,30.21,10.0,NW,9.2,-,N/A,,Clear,320,2013-07-30 19:51:00
4:51 PM,73.0,55.0,53,30.19,10.0,NW,5.8,-,N/A,,Clear,320,2013-07-30 20:51:00
5:51 PM,73.0,55.0,53,30.19,10.0,Variable,4.6,-,N/A,,Clear,0,2013-07-30 21:51:00
6:51 PM,72.0,54.0,53,30.17,10.0,Calm,Calm,-,N/A,,Clear,0,2013-07-30 22:51:00
7:51 PM,71.1,53.1,53,30.17,10.0,WSW,3.5,-,N/A,,Clear,240,2013-07-30 23:51:00
8:51 PM,66.9,55.9,68,30.16,10.0,South,3.5,-,N/A,,Clear,190,2013-07-31 00:51:00
9:51 PM,64.0,55.9,75,30.17,10.0,South,4.6,-,N/A,,Clear,190,2013-07-31 01:51:00
10:51 PM,63.0,55.0,75,30.17,10.0,Calm,Calm,-,N/A,,Clear,0,2013-07-31 02:51:00
11:51 PM,63.0,55.0,75,30.16,10.0,South,3.5,-,N/A,,Partly Cloudy,180,2013-07-31 03:51:00